Tracking 19706 objects as of 16-Jun-2019
HD Live streaming from Space Station
objects crossing your sky now

COSMOS 1057

Track COSMOS 1057 now!
10-day predictions
COSMOS 1057 is classified as:


NORAD ID: 11134
Int'l Code: 1978-109G
Perigee: 1,487.3 km
Apogee: 1,522.5 km
Inclination: 74.0 °
Period: 115.9 minutes
Semi major axis: 7875 km
RCS: 0.7046 m2 (medium)
Launch date: December 5, 1978
Source: Commonwealth of Independent States (former USSR) (CIS)
Launch site: PLESETSK MISSILE AND SPACE COMPLEX (PKMTR)
aabbcc
Your satellite tracking list
Your tracking list is empty




NASA's NSSDC Master Catalog

Two Line Element Set (TLE):
1 11134U 78109G   19167.10870826  .00000004  00000-0  14049-3 0  9996
2 11134  74.0183  41.7599 0022319 293.5834 221.2427 12.42090968837820
Source of the keplerian elements: AFSPC